Weather History for Pittsburg, KS

Change the Weather History Date:

Sunday, August 4, 2013

  Actual Average (KJLN) Record (KJLN)
Temperature  
Mean Temperature 75 °F 81 °F  
Max Temperature 78 °F 92 °F 107 °F (2012)
Min Temperature 72 °F 70 °F 50 °F (1974)
Degree Days  
Heating Degree Days 0 0  
Month to date heating degree days 0  
Since 1 June heating degree days 5  
Since 1 July heating degree days 0  
Cooling Degree Days 10 16  
Month to date cooling degree days 64  
Year to date cooling degree days 1035  
Since 1 June cooling degree days 855  
Growing Degree Days 25 (Base 50)    
Moisture  
Dew Point 76 °F    
Average Humidity 100    
Maximum Humidity 100    
Minimum Humidity 95    
Precipitation  
Precipitation 0.80 in 0.10 in 1.26 in (2013)
Month to date precipitation 0.39  
Year to date precipitation 28.01  
Snow  
Snow 0.00 in - - ()
Month to date snowfall  
Since 1 June snowfall  
Since 1 July snowfall  
Snow Depth -    
Sea Level Pressure  
Sea Level Pressure 30.08 in    
Wind  
Wind Speed 5 mph (ESE)    
Max Wind Speed 14 mph    
Max Gust Speed 18 mph    
Visibility 9 miles    
Events Thunderstorm    
T = Trace of Precipitation, MM = Missing Value Source: NWS Daily Summary

Daily Weather History Graph

Daily Weather History Graph

Search for Another Location

Airport:

Trip Planner

Search our weather history database for the weather conditions in past years. The results will help you decide how hot, cold, wet, or windy it might be!

Date:

Astronomy

Aug. 04, 2013 Rise Set
Actual Time 6:25 AM CDT 8:23 PM CDT
Civil Twilight 5:57 AM CDT 8:52 PM CDT
Nautical Twilight 5:22 AM CDT 9:26 PM CDT
Astronomical Twilight 4:44 AM CDT 10:04 PM CDT
Moon 4:28 AM CDT (8/4) 6:47 PM CDT (8/4)
Length of Visible Light 14h 54m
Length of Day
13h 57m
Waning Crescent, 4% of the Moon is Illuminated
Aug 4
Waning Crescent
Aug 6
New
Aug 14
First Quarter
Aug 20
Full
Aug 28
Last Quarter

Hourly Weather History & Observations

Time (CDT) Temp. Dew Point Humidity Pressure Visibility Wind Dir Wind Speed Gust Speed Precip Events Conditions
12:15 AM 78.4 °F 76.8 °F 95% 30.09 in 10.0 mi East 4.6 mph - N/A   Clear
12:35 AM 78.4 °F 78.6 °F 100% 30.09 in 10.0 mi East 4.6 mph - N/A   Clear
12:55 AM 77.9 °F 78.1 °F 100% 30.09 in 10.0 mi East 5.8 mph - N/A   Clear
1:15 AM 76.6 °F 76.6 °F 100% 30.08 in 10.0 mi East 5.8 mph - N/A   Clear
1:35 AM 76.3 °F 76.3 °F 100% 30.07 in 10.0 mi East 5.8 mph - N/A   Clear
1:55 AM 76.1 °F 76.1 °F 100% 30.06 in 10.0 mi ESE 6.9 mph - N/A   Clear
2:15 AM 76.1 °F 76.1 °F 100% 30.07 in 10.0 mi East 5.8 mph - N/A   Clear
2:35 AM 76.1 °F 76.1 °F 100% 30.06 in 10.0 mi East 5.8 mph - N/A   Clear
2:55 AM 76.1 °F 76.1 °F 100% 30.07 in 10.0 mi East 5.8 mph - N/A   Scattered Clouds
3:15 AM 76.1 °F 76.1 °F 100% 30.07 in 10.0 mi ESE 4.6 mph - N/A   Mostly Cloudy
3:35 AM 76.1 °F 76.1 °F 100% 30.08 in 10.0 mi East 4.6 mph - N/A   Mostly Cloudy
3:55 AM 76.1 °F 76.1 °F 100% 30.07 in 10.0 mi East 4.6 mph - N/A   Mostly Cloudy
4:15 AM 76.1 °F 76.1 °F 100% 30.08 in 10.0 mi ENE 5.8 mph - N/A   Mostly Cloudy
4:35 AM 76.1 °F 76.1 °F 100% 30.07 in 10.0 mi East 6.9 mph - N/A   Scattered Clouds
4:55 AM 76.1 °F 76.1 °F 100% 30.07 in 10.0 mi East 4.6 mph - N/A   Clear
5:15 AM 76.1 °F - N/A% 30.05 in 10.0 mi ESE 4.6 mph - N/A Thunderstorm Clear
5:35 AM 76.1 °F - N/A% 30.06 in 10.0 mi East 3.5 mph - N/A   Scattered Clouds
5:55 AM 76.1 °F - N/A% 30.07 in 10.0 mi ESE 4.6 mph - N/A   Mostly Cloudy
6:15 AM 76.1 °F - N/A% 30.07 in 10.0 mi ESE 4.6 mph - N/A Thunderstorm Scattered Clouds
6:35 AM 76.1 °F - N/A% 30.07 in 10.0 mi SE 4.6 mph - N/A Thunderstorm Scattered Clouds
6:55 AM 76.1 °F - N/A% 30.09 in 10.0 mi SSE 4.6 mph - N/A Thunderstorm Scattered Clouds
7:15 AM 76.1 °F - N/A% - 7.0 mi SW 8.1 mph - N/A Thunderstorm Mostly Cloudy
7:35 AM 76.1 °F 76.1 °F 100% 30.12 in 10.0 mi West 13.8 mph 18.4 mph 0.01 in Thunderstorm Overcast
7:55 AM 73.9 °F - N/A% 30.12 in 5.0 mi West 6.9 mph - 0.11 in Thunderstorm Overcast
8:15 AM 73.4 °F - N/A% 30.12 in 2.5 mi Calm Calm - 0.15 in Thunderstorm Overcast
8:35 AM 73.4 °F - N/A% 30.14 in 2.5 mi Calm Calm - 0.22 in Thunderstorm Overcast
8:55 AM 73.4 °F - N/A% 30.13 in 3.0 mi Calm Calm - 0.29 in Thunderstorm Overcast
9:15 AM 73.4 °F - N/A% 30.14 in 5.0 mi WSW 3.5 mph - 0.04 in   Overcast
9:35 AM 73.2 °F - N/A% 30.14 in 5.0 mi SW 3.5 mph - 0.07 in   Overcast
9:55 AM 72.5 °F - N/A% 30.14 in 3.0 mi Calm Calm - 0.14 in   Overcast
10:15 AM 73.2 °F - N/A% 30.14 in 3.0 mi ESE 3.5 mph - 0.05 in   Overcast
10:35 AM 73.4 °F - N/A% 30.15 in 5.0 mi SE 3.5 mph - 0.09 in   Overcast
10:55 AM 73.4 °F - N/A% 30.15 in 10.0 mi ESE 5.8 mph - 0.10 in   Overcast
11:15 AM 73.4 °F - N/A% 30.15 in 7.0 mi SE 4.6 mph - N/A   Overcast
11:35 AM 73.4 °F - N/A% 30.15 in 7.0 mi SE 3.5 mph - 0.02 in   Overcast
11:55 AM 73.8 °F - N/A% 30.14 in 4.0 mi ESE 5.8 mph - 0.06 in   Overcast
12:15 PM 73.8 °F - N/A% 30.13 in 5.0 mi ESE 5.8 mph - 0.02 in   Overcast
12:35 PM 74.7 °F - N/A% 30.12 in 7.0 mi East 6.9 mph - 0.04 in   Overcast
12:55 PM 75.9 °F - N/A% 30.12 in 7.0 mi ESE 5.8 mph - 0.06 in   Overcast
1:15 PM 76.1 °F - N/A% 30.11 in 10.0 mi ESE 6.9 mph - N/A   Overcast
1:35 PM 76.1 °F - N/A% 30.11 in 7.0 mi ESE 6.9 mph - 0.01 in   Overcast
1:55 PM 76.1 °F - N/A% 30.09 in 10.0 mi East 9.2 mph - 0.02 in   Overcast
2:15 PM 76.1 °F - N/A% 30.09 in 10.0 mi SE 5.8 mph - N/A   Overcast
2:35 PM 76.1 °F - N/A% 30.09 in 10.0 mi ESE 5.8 mph - N/A   Mostly Cloudy
2:55 PM 76.1 °F - N/A% 30.09 in 7.0 mi ESE 5.8 mph - 0.01 in   Overcast
3:15 PM 76.1 °F - N/A% 30.07 in 10.0 mi ESE 6.9 mph - N/A   Overcast
3:35 PM 76.1 °F - N/A% 30.07 in 7.0 mi SE 8.1 mph - N/A   Scattered Clouds
3:55 PM 76.1 °F 76.1 °F 100% 30.07 in 10.0 mi SE 5.8 mph - N/A   Scattered Clouds
4:15 PM 76.1 °F 76.1 °F 100% 30.06 in 10.0 mi SE 6.9 mph - N/A   Mostly Cloudy
4:35 PM 76.1 °F 76.1 °F 100% 30.07 in 10.0 mi SE 5.8 mph - N/A   Mostly Cloudy
4:55 PM 76.1 °F 76.1 °F 100% 30.06 in 10.0 mi SE 4.6 mph - N/A   Scattered Clouds
5:15 PM 76.1 °F 76.1 °F 100% 30.05 in 7.0 mi SE 4.6 mph - N/A   Mostly Cloudy
5:35 PM 76.1 °F 76.1 °F 100% 30.05 in 5.0 mi SE 3.5 mph - 0.01 in   Overcast
5:55 PM 76.1 °F - N/A% 30.04 in 7.0 mi East 3.5 mph - 0.01 in   Scattered Clouds
6:15 PM 76.1 °F - N/A% 30.03 in 10.0 mi East 4.6 mph - N/A   Scattered Clouds
6:35 PM 76.1 °F - N/A% 30.02 in 10.0 mi East 6.9 mph - N/A   Scattered Clouds
6:55 PM 76.1 °F - N/A% 30.03 in 10.0 mi East 5.8 mph - N/A   Scattered Clouds
7:15 PM 76.1 °F - N/A% 30.03 in 10.0 mi ESE 5.8 mph - N/A   Clear
7:35 PM 76.1 °F 76.1 °F 100% 30.03 in 10.0 mi ESE 5.8 mph - N/A   Scattered Clouds
7:55 PM 76.1 °F 76.1 °F 100% 30.04 in 10.0 mi ESE 6.9 mph - N/A   Scattered Clouds
8:15 PM 76.1 °F 76.1 °F 100% 30.04 in 10.0 mi ESE 4.6 mph - N/A   Scattered Clouds
8:35 PM 76.1 °F 76.1 °F 100% 30.03 in 10.0 mi ESE 4.6 mph - N/A   Clear
8:55 PM 75.9 °F 75.9 °F 100% 30.03 in 10.0 mi ESE 5.8 mph - N/A   Scattered Clouds
9:15 PM 73.9 °F 74.1 °F 100% 30.03 in 10.0 mi ESE 4.6 mph - N/A   Scattered Clouds
9:35 PM 73.4 °F 73.6 °F 100% 30.03 in 10.0 mi ESE 4.6 mph - N/A   Mostly Cloudy
9:55 PM 73.4 °F 73.6 °F 100% 30.03 in 10.0 mi East 5.8 mph - N/A   Scattered Clouds
10:15 PM 73.4 °F - N/A% 30.03 in 10.0 mi East 5.8 mph - N/A   Scattered Clouds
10:35 PM 73.4 °F - N/A% 30.02 in 10.0 mi ESE 6.9 mph - N/A   Scattered Clouds
10:55 PM 73.4 °F 73.6 °F 100% 30.02 in 10.0 mi ESE 5.8 mph - N/A Thunderstorm Mostly Cloudy
11:15 PM 73.4 °F 73.6 °F 100% 30.02 in 10.0 mi SE 3.5 mph - N/A Thunderstorm Overcast
11:35 PM 73.4 °F 73.6 °F 100% 30.02 in 10.0 mi ESE 6.9 mph - N/A   Mostly Cloudy
11:55 PM 73.0 °F 73.2 °F 100% 30.02 in 10.0 mi ESE 5.8 mph - N/A Thunderstorm Mostly Cloudy